sat.trackr.live / text

‹ back to catalog

STARLINK-5741

NORAD 55582 · 2023-020P

PAYLOAD ACTIVE UNKNOWN

§ Identity

Operator
Country
US
Launch date
2023-02-12
Launch site
AFETR
Launch vehicle
Mass (kg)
RCS (m²)

Purposes: comms

External: N2YO · Heavens-Above · Gunter

§ Orbital elements

Epoch: 2026-05-25T02:06:47.367936Z

Period
94.27 min
Inclination
43.0034°
Eccentricity
0.0001245
Mean motion
15.27577156 rev/d
Perigee alt
482.2 km
Apogee alt
483.9 km
Semi-major
6,861.2 km
B*
1.7260e-6
RAAN
282.7611°
Arg perigee
267.9406°
Mean anomaly
92.1303°
Rev number
18,072

§ Raw data

STARLINK-57411 55582U 23020P   26145.08804824 -.00000215  00000+0  17260-5 0  99932 55582  43.0034 282.7611 0001245 267.9406  92.1303 15.27577156180726

JSON: /api/v1/satellites/55582 · /tle

For live sub-satellite position, see the globe view (requires WebGL).

§ Visibility from observer

Set your observer location to see the next 7 days of passes ≥ 10°. The values pass through the URL so the page stays shareable.

No JS? Fill the form by hand. The geolocation button needs JavaScript.